This is the latest recevied weather packets stored in our database for station/object W4MJZ-1. If no packets are shown the sender has not sent any weather packets the latest 10 day(s).
| Time | Temp. | Humidity | Pressure | Rain* | Wind** | Luminosity | Snow |
|---|---|---|---|---|---|---|---|
| 1777529239 | 20° C | 21% | 1021.8 hPa | 0 mm | - | - | - |
| 1777528938 | 20.56° C | 21% | 1021.5 hPa | 0 mm | - | - | - |
| 1777528781 | 21.11° C | 20% | 1021.8 hPa | 0 mm | - | - | - |
| 1777528640 | 20.56° C | 20% | 1021.5 hPa | 0 mm | - | - | - |
| 1777528510 | 21.11° C | 20% | 1021.5 hPa | 0 mm | - | - | - |
| 1777528338 | 21.11° C | 20% | 1021.8 hPa | 0 mm | - | - | - |
| 1777528039 | 21.11° C | 20% | 1021.5 hPa | 0 mm | - | - | - |
| 1777527940 | 21.67° C | 20% | 1022.2 hPa | 0 mm | - | - | - |
| 1777527748 | 21.67° C | 20% | 1021.8 hPa | 0 mm | - | - | - |
| 1777527738 | 21.67° C | 20% | 1022.2 hPa | 0 mm | - | - | - |
| 1777527438 | 21.67° C | 20% | 1021.8 hPa | 0 mm | - | - | - |
| 1777527138 | 21.67° C | 20% | 1021.8 hPa | 0 mm | - | - | - |
| 1777526839 | 21.67° C | 20% | 1021.8 hPa | 0 mm | - | - | - |
| 1777526678 | 22.22° C | 19% | 1022.2 hPa | 0 mm | - | - | - |
| 1777526539 | 22.22° C | 19% | 1021.8 hPa | 0 mm | - | - | - |
| 1777526239 | 22.22° C | 19% | 1022.2 hPa | 0 mm | - | - | - |
| 1777525968 | 22.22° C | 19% | 1021.8 hPa | 0 mm | - | - | - |
| 1777525939 | 22.22° C | 19% | 1021.8 hPa | 0 mm | - | - | - |
| 1777525639 | 22.22° C | 19% | 1021.8 hPa | 0 mm | - | - | - |
| 1777525573 | 22.22° C | 19% | 1021.8 hPa | 0 mm | - | - | - |
| 1777525341 | 22.22° C | 19% | 1021.8 hPa | 0 mm | - | - | - |
| 1777525339 | 22.22° C | 19% | 1021.8 hPa | 0 mm | - | - | - |
| 1777525125 | 22.22° C | 19% | 1022.2 hPa | 0 mm | - | - | - |
| 1777525038 | 22.22° C | 19% | 1021.8 hPa | 0 mm | - | - | - |
| 1777524768 | 22.22° C | 19% | 1022.2 hPa | 0 mm | - | - | - |
* Rain latest hour (hover to see other rain measurements)
** Current wind speed in m/s (hover to see current wind gust speed)